Time,TemperatureF,DewpointF,PressureIn,WindDirection,WindDirectionDegrees,WindSpeedMPH,WindSpeedGustMPH,Humidity,HourlyPrecipIn,Conditions,Clouds,dailyrainin,SoftwareType,DateUTC
2013-05-14 00:01:00,37.3,34.9,30.08,WNW,291,0.0,0.0,91,0.00,,,0.00,Wunderground v.1.15,2013-05-14 04:01:00,
2013-05-14 00:02:00,37.3,34.9,30.08,WNW,291,0.0,0.0,91,0.00,,,0.00,Wunderground v.1.15,2013-05-14 04:02:00,
2013-05-14 00:04:00,37.2,34.8,30.08,WNW,291,0.0,0.0,91,0.00,,,0.00,Wunderground v.1.15,2013-05-14 04:04:00,
2013-05-14 00:05:00,37.2,34.8,30.09,WNW,291,0.0,0.0,91,0.00,,,0.00,Wunderground v.1.15,2013-05-14 04:05:00,
2013-05-14 00:10:00,37.0,34.6,30.08,WNW,291,0.0,0.0,91,0.00,,,0.00,Wunderground v.1.15,2013-05-14 04:10:00,
2013-05-14 00:15:00,36.8,34.4,30.08,WNW,291,0.0,0.0,91,0.00,,,0.00,Wunderground v.1.15,2013-05-14 04:15:00,
2013-05-14 00:19:00,36.7,34.6,30.09,WNW,291,0.0,0.0,92,0.00,,,0.00,Wunderground v.1.15,2013-05-14 04:19:00,
2013-05-14 00:25:00,36.5,34.4,30.09,WNW,291,0.0,0.0,92,0.00,,,0.00,Wunderground v.1.15,2013-05-14 04:25:00,
2013-05-14 00:30:00,36.4,34.3,30.09,WNW,291,0.0,0.0,92,0.00,,,0.00,Wunderground v.1.15,2013-05-14 04:30:00,
2013-05-14 00:35:00,36.3,34.5,30.09,WNW,291,0.0,0.0,93,0.00,,,0.00,Wunderground v.1.15,2013-05-14 04:35:00,
2013-05-14 00:41:00,36.2,34.4,30.09,WNW,291,0.0,0.0,93,0.00,,,0.00,Wunderground v.1.15,2013-05-14 04:41:00,
2013-05-14 00:46:00,36.1,34.3,30.09,WNW,291,0.0,0.0,93,0.00,,,0.00,Wunderground v.1.15,2013-05-14 04:46:00,
2013-05-14 00:51:00,36.0,34.4,30.09,WNW,291,0.0,0.0,94,0.00,,,0.00,Wunderground v.1.15,2013-05-14 04:51:00,
2013-05-14 00:57:00,36.0,34.4,30.09,WNW,291,0.0,0.0,94,0.00,,,0.00,Wunderground v.1.15,2013-05-14 04:57:00,
2013-05-14 01:02:00,35.9,34.3,30.08,WNW,291,0.0,0.0,94,0.00,,,0.00,Wunderground v.1.15,2013-05-14 05:02:00,
2013-05-14 01:07:00,35.9,34.3,30.08,WNW,291,0.0,0.0,94,0.00,,,0.00,Wunderground v.1.15,2013-05-14 05:07:00,
2013-05-14 01:12:00,35.8,34.2,30.08,WNW,291,0.0,0.0,94,0.00,,,0.00,Wunderground v.1.15,2013-05-14 05:12:00,
2013-05-14 01:17:00,35.7,34.1,30.08,WNW,291,0.0,0.0,94,0.00,,,0.00,Wunderground v.1.15,2013-05-14 05:17:00,
2013-05-14 01:22:00,35.6,34.0,30.09,WNW,291,0.0,0.0,94,0.00,,,0.00,Wunderground v.1.15,2013-05-14 05:22:00,
2013-05-14 01:27:00,35.5,33.9,30.09,WNW,291,0.0,0.0,94,0.00,,,0.00,Wunderground v.1.15,2013-05-14 05:27:00,
2013-05-14 01:32:00,35.4,33.8,30.08,WNW,291,0.0,0.0,94,0.00,,,0.00,Wunderground v.1.15,2013-05-14 05:32:00,
2013-05-14 01:37:00,35.3,33.7,30.08,WNW,291,0.0,0.0,94,0.00,,,0.00,Wunderground v.1.15,2013-05-14 05:37:00,
2013-05-14 01:42:00,35.1,33.5,30.08,WNW,291,0.0,0.0,94,0.00,,,0.00,Wunderground v.1.15,2013-05-14 05:42:00,
2013-05-14 01:47:00,35.0,33.4,30.08,WNW,291,0.0,0.0,94,0.00,,,0.00,Wunderground v.1.15,2013-05-14 05:47:00,
2013-05-14 01:53:00,34.9,33.3,30.08,WNW,291,0.0,0.0,94,0.00,,,0.00,Wunderground v.1.15,2013-05-14 05:53:00,
2013-05-14 01:58:00,34.7,33.2,30.08,WNW,291,0.0,0.0,94,0.00,,,0.00,Wunderground v.1.15,2013-05-14 05:58:00,
2013-05-14 02:03:00,34.6,33.1,30.08,WNW,291,0.0,0.0,94,0.00,,,0.00,Wunderground v.1.15,2013-05-14 06:03:00,
2013-05-14 02:09:00,34.5,33.2,30.08,WNW,291,0.0,0.0,95,0.00,,,0.00,Wunderground v.1.15,2013-05-14 06:09:00,
2013-05-14 02:14:00,34.4,33.1,30.08,WNW,291,0.0,0.0,95,0.00,,,0.00,Wunderground v.1.15,2013-05-14 06:14:00,
2013-05-14 02:19:00,34.3,33.0,30.08,WNW,291,0.0,0.0,95,0.00,,,0.00,Wunderground v.1.15,2013-05-14 06:19:00,
2013-05-14 02:24:00,34.2,32.9,30.08,WNW,291,0.0,0.0,95,0.00,,,0.00,Wunderground v.1.15,2013-05-14 06:24:00,
2013-05-14 02:30:00,34.1,32.8,30.08,WNW,291,0.0,0.0,95,0.00,,,0.00,Wunderground v.1.15,2013-05-14 06:30:00,
2013-05-14 02:35:00,34.0,32.7,30.08,WNW,291,0.0,0.0,95,0.00,,,0.00,Wunderground v.1.15,2013-05-14 06:35:00,
2013-05-14 02:40:00,33.9,32.6,30.08,WNW,291,0.0,0.0,95,0.00,,,0.00,Wunderground v.1.15,2013-05-14 06:40:00,
2013-05-14 02:45:00,33.8,32.5,30.08,WNW,291,0.0,0.0,95,0.00,,,0.00,Wunderground v.1.15,2013-05-14 06:45:00,
2013-05-14 02:50:00,33.7,32.4,30.08,WNW,291,0.0,0.0,95,0.00,,,0.00,Wunderground v.1.15,2013-05-14 06:50:00,
2013-05-14 02:55:00,33.6,32.3,30.08,WNW,291,0.0,0.0,95,0.00,,,0.00,Wunderground v.1.15,2013-05-14 06:55:00,
2013-05-14 03:01:00,33.5,32.2,30.08,WNW,291,0.0,0.0,95,0.00,,,0.00,Wunderground v.1.15,2013-05-14 07:01:00,
2013-05-14 03:06:00,33.4,32.1,30.09,WNW,291,0.0,0.0,95,0.00,,,0.00,Wunderground v.1.15,2013-05-14 07:06:00,
2013-05-14 03:11:00,33.4,32.4,30.09,WNW,291,0.0,0.0,96,0.00,,,0.00,Wunderground v.1.15,2013-05-14 07:11:00,
2013-05-14 03:16:00,33.3,32.3,30.09,WNW,291,0.0,0.0,96,0.00,,,0.00,Wunderground v.1.15,2013-05-14 07:16:00,
2013-05-14 03:21:00,33.3,32.3,30.09,WNW,291,0.0,0.0,96,0.00,,,0.00,Wunderground v.1.15,2013-05-14 07:21:00,
2013-05-14 03:26:00,33.3,32.3,30.09,WNW,291,0.0,0.0,96,0.00,,,0.00,Wunderground v.1.15,2013-05-14 07:26:00,
2013-05-14 03:32:00,33.4,32.4,30.09,WNW,291,0.0,0.0,96,0.00,,,0.00,Wunderground v.1.15,2013-05-14 07:32:00,
2013-05-14 03:37:00,33.4,32.4,30.09,WNW,291,0.0,0.0,96,0.00,,,0.00,Wunderground v.1.15,2013-05-14 07:37:00,
2013-05-14 03:43:00,33.4,32.6,30.09,WNW,291,0.0,0.0,97,0.00,,,0.00,Wunderground v.1.15,2013-05-14 07:43:00,
2013-05-14 03:48:00,33.4,32.6,30.09,WNW,291,1.0,2.0,97,0.00,,,0.00,Wunderground v.1.15,2013-05-14 07:48:00,
2013-05-14 03:53:00,33.7,32.9,30.08,WNW,291,1.0,3.0,97,0.00,,,0.00,Wunderground v.1.15,2013-05-14 07:53:00,
2013-05-14 03:58:00,34.1,33.3,30.08,West,281,2.0,4.0,97,0.00,,,0.00,Wunderground v.1.15,2013-05-14 07:58:00,
2013-05-14 04:04:00,34.5,33.7,30.08,West,279,2.0,4.0,97,0.00,,,0.00,Wunderground v.1.15,2013-05-14 08:04:00,
2013-05-14 04:10:00,34.9,33.9,30.08,WNW,301,3.0,3.0,96,0.00,,,0.00,Wunderground v.1.15,2013-05-14 08:10:00,
2013-05-14 04:16:00,35.4,34.1,30.08,WNW,295,3.0,3.0,95,0.00,,,0.00,Wunderground v.1.15,2013-05-14 08:16:00,
2013-05-14 04:21:00,35.8,34.2,30.08,WNW,298,2.0,2.0,94,0.00,,,0.00,Wunderground v.1.15,2013-05-14 08:21:00,
2013-05-14 04:26:00,36.1,34.0,30.08,WNW,295,2.0,6.0,92,0.00,,,0.00,Wunderground v.1.15,2013-05-14 08:26:00,
2013-05-14 04:31:00,36.2,33.8,30.08,NNW,340,1.0,1.0,91,0.00,,,0.00,Wunderground v.1.15,2013-05-14 08:31:00,
2013-05-14 04:37:00,36.3,34.2,30.08,NNW,340,0.0,1.0,92,0.00,,,0.00,Wunderground v.1.15,2013-05-14 08:37:00,
2013-05-14 04:42:00,36.2,34.1,30.08,NNW,340,0.0,0.0,92,0.00,,,0.00,Wunderground v.1.15,2013-05-14 08:42:00,
2013-05-14 04:47:00,36.1,33.7,30.08,WNW,289,1.0,2.0,91,0.00,,,0.00,Wunderground v.1.15,2013-05-14 08:47:00,
2013-05-14 04:52:00,36.0,33.6,30.08,WNW,283,1.0,4.0,91,0.00,,,0.00,Wunderground v.1.15,2013-05-14 08:52:00,
2013-05-14 04:57:00,36.0,33.6,30.08,NNW,327,2.0,9.0,91,0.00,,,0.00,Wunderground v.1.15,2013-05-14 08:57:00,
2013-05-14 05:04:00,36.3,33.6,30.08,West,271,3.0,5.0,90,0.00,,,0.00,Wunderground v.1.15,2013-05-14 09:04:00,
2013-05-14 05:09:00,36.6,33.7,30.08,NW,306,3.0,7.0,89,0.00,,,0.00,Wunderground v.1.15,2013-05-14 09:09:00,
2013-05-14 05:14:00,37.0,33.8,30.08,WNW,287,2.0,3.0,88,0.00,,,0.00,Wunderground v.1.15,2013-05-14 09:14:00,
2013-05-14 05:19:00,37.1,33.9,30.08,WNW,294,1.0,3.0,88,0.00,,,0.00,Wunderground v.1.15,2013-05-14 09:19:00,
2013-05-14 05:25:00,37.2,34.5,30.08,WNW,294,0.0,1.0,90,0.00,,,0.00,Wunderground v.1.15,2013-05-14 09:25:00,
2013-05-14 05:31:00,36.9,34.2,30.08,WNW,294,0.0,0.0,90,0.00,,,0.00,Wunderground v.1.15,2013-05-14 09:31:00,
2013-05-14 05:41:00,36.2,33.5,30.08,WNW,294,0.0,0.0,90,0.00,,,0.00,Wunderground v.1.15,2013-05-14 09:41:00,
2013-05-14 05:49:00,35.9,33.5,30.08,WNW,294,0.0,0.0,91,0.00,,,0.00,Wunderground v.1.15,2013-05-14 09:49:00,
2013-05-14 06:00:00,35.4,33.3,30.08,WNW,294,0.0,0.0,92,0.00,,,0.00,Wunderground v.1.15,2013-05-14 10:00:00,
2013-05-14 06:06:00,35.2,33.4,30.08,WNW,294,0.0,0.0,93,0.00,,,0.00,Wunderground v.1.15,2013-05-14 10:06:00,
2013-05-14 06:11:00,35.1,33.3,30.08,WNW,294,0.0,0.0,93,0.00,,,0.00,Wunderground v.1.15,2013-05-14 10:11:00,
2013-05-14 06:16:00,35.0,33.2,30.08,WNW,294,0.0,0.0,93,0.00,,,0.00,Wunderground v.1.15,2013-05-14 10:16:00,
2013-05-14 06:21:00,34.9,33.3,30.09,WNW,294,0.0,0.0,94,0.00,,,0.00,Wunderground v.1.15,2013-05-14 10:21:00,
2013-05-14 06:26:00,34.9,33.3,30.09,WNW,294,0.0,0.0,94,0.00,,,0.00,Wunderground v.1.15,2013-05-14 10:26:00,
2013-05-14 06:31:00,34.9,33.3,30.09,WNW,286,0.0,3.0,94,0.00,,,0.00,Wunderground v.1.15,2013-05-14 10:31:00,
2013-05-14 06:37:00,35.1,33.5,30.09,WNW,283,1.0,3.0,94,0.00,,,0.00,Wunderground v.1.15,2013-05-14 10:37:00,
2013-05-14 06:42:00,35.5,33.9,30.09,WNW,299,2.0,4.0,94,0.00,,,0.00,Wunderground v.1.15,2013-05-14 10:42:00,
2013-05-14 06:49:00,36.4,34.0,30.09,NW,304,3.0,9.0,91,0.00,,,0.00,Wunderground v.1.15,2013-05-14 10:49:00,
2013-05-14 06:54:00,37.3,34.4,30.09,NW,305,3.0,6.0,89,0.00,,,0.00,Wunderground v.1.15,2013-05-14 10:54:00,
2013-05-14 06:59:00,38.0,34.5,30.09,WNW,287,3.0,6.0,87,0.00,,,0.00,Wunderground v.1.15,2013-05-14 10:59:00,
2013-05-14 07:04:00,38.5,34.7,30.09,WNW,288,3.0,5.0,86,0.00,,,0.00,Wunderground v.1.15,2013-05-14 11:04:00,
2013-05-14 07:09:00,39.0,34.6,30.09,West,262,2.0,5.0,84,0.00,,,0.00,Wunderground v.1.15,2013-05-14 11:09:00,
2013-05-14 07:14:00,39.5,34.8,30.09,West,279,2.0,2.0,83,0.00,,,0.00,Wunderground v.1.15,2013-05-14 11:14:00,
2013-05-14 07:19:00,39.8,34.8,30.10,NW,304,1.0,2.0,82,0.00,,,0.00,Wunderground v.1.15,2013-05-14 11:19:00,
2013-05-14 07:25:00,40.1,35.0,30.10,NNW,340,1.0,1.0,82,0.00,,,0.00,Wunderground v.1.15,2013-05-14 11:25:00,
2013-05-14 07:30:00,40.5,35.1,30.10,West,277,2.0,2.0,81,0.00,,,0.00,Wunderground v.1.15,2013-05-14 11:30:00,
2013-05-14 07:35:00,40.9,35.5,30.10,NE,38,2.0,4.0,81,0.00,,,0.00,Wunderground v.1.15,2013-05-14 11:35:00,
2013-05-14 07:40:00,41.4,35.1,30.10,WNW,285,2.0,2.0,78,0.00,,,0.00,Wunderground v.1.15,2013-05-14 11:40:00,
2013-05-14 07:45:00,41.7,35.3,30.10,NE,43,2.0,2.0,78,0.00,,,0.00,Wunderground v.1.15,2013-05-14 11:45:00,
2013-05-14 08:12:00,43.5,34.7,30.10,NNW,333,3.0,5.0,71,0.00,,,0.00,Wunderground v.1.15,2013-05-14 12:12:00,
2013-05-14 09:07:00,46.6,35.8,30.10,WNW,298,3.0,7.0,66,0.00,,,0.00,Wunderground v.1.15,2013-05-14 13:07:00,
2013-05-14 09:14:00,47.3,35.3,30.10,West,274,5.0,7.0,63,0.00,,,0.00,Wunderground v.1.15,2013-05-14 13:14:00,
2013-05-14 09:19:00,47.8,35.0,30.09,WSW,254,6.0,9.0,61,0.00,,,0.00,Wunderground v.1.15,2013-05-14 13:19:00,
2013-05-14 09:24:00,48.1,34.9,30.09,ENE,57,4.0,6.0,60,0.00,,,0.00,Wunderground v.1.15,2013-05-14 13:24:00,
2013-05-14 09:30:00,48.5,36.1,30.09,SW,234,3.0,4.0,62,0.00,,,0.00,Wunderground v.1.15,2013-05-14 13:30:00,
2013-05-14 09:35:00,48.9,36.0,30.09,NW,310,3.0,8.0,61,0.00,,,0.00,Wunderground v.1.15,2013-05-14 13:35:00,
2013-05-14 09:40:00,49.3,34.7,30.09,WSW,250,4.0,8.0,57,0.00,,,0.00,Wunderground v.1.15,2013-05-14 13:40:00,
2013-05-14 09:55:00,50.5,35.4,30.09,North,350,3.0,5.0,56,0.00,,,0.00,Wunderground v.1.15,2013-05-14 13:55:00,
2013-05-14 10:00:00,50.9,35.3,30.09,WNW,294,3.0,3.0,55,0.00,,,0.00,Wunderground v.1.15,2013-05-14 14:00:00,
2013-05-14 10:07:00,51.3,34.3,30.09,West,279,3.0,8.0,52,0.00,,,0.00,Wunderground v.1.15,2013-05-14 14:07:00,
2013-05-14 10:22:00,52.3,33.7,30.09,North,360,4.0,5.0,49,0.00,,,0.00,Wunderground v.1.15,2013-05-14 14:22:00,
2013-05-14 10:28:00,52.9,35.7,30.09,West,274,3.0,5.0,52,0.00,,,0.00,Wunderground v.1.15,2013-05-14 14:28:00,
2013-05-14 10:34:00,53.3,34.1,30.09,West,265,3.0,4.0,48,0.00,,,0.00,Wunderground v.1.15,2013-05-14 14:34:00,
2013-05-14 10:39:00,53.4,34.2,30.09,WNW,286,3.0,4.0,48,0.00,,,0.00,Wunderground v.1.15,2013-05-14 14:39:00,
2013-05-14 10:44:00,53.6,32.2,30.09,West,279,4.0,8.0,44,0.00,,,0.00,Wunderground v.1.15,2013-05-14 14:44:00,
2013-05-14 10:49:00,53.6,32.8,30.09,NNE,31,4.0,8.0,45,0.00,,,0.00,Wunderground v.1.15,2013-05-14 14:49:00,
2013-05-14 10:54:00,53.8,32.9,30.09,NE,34,4.0,4.0,45,0.00,,,0.00,Wunderground v.1.15,2013-05-14 14:54:00,
2013-05-14 11:00:00,53.8,33.5,30.09,West,271,4.0,4.0,46,0.00,,,0.00,Wunderground v.1.15,2013-05-14 15:00:00,
2013-05-14 11:06:00,53.4,32.6,30.09,West,264,2.0,4.0,45,0.00,,,0.00,Wunderground v.1.15,2013-05-14 15:06:00,
2013-05-14 11:11:00,53.0,31.1,30.09,WNW,297,2.0,11.0,43,0.00,,,0.00,Wunderground v.1.15,2013-05-14 15:11:00,
2013-05-14 11:17:00,53.0,29.9,30.09,NW,306,4.0,11.0,41,0.00,,,0.00,Wunderground v.1.15,2013-05-14 15:17:00,
2013-05-14 11:22:00,53.2,29.5,30.08,NW,325,3.0,4.0,40,0.00,,,0.00,Wunderground v.1.15,2013-05-14 15:22:00,
2013-05-14 11:27:00,53.7,29.3,30.08,SW,217,2.0,7.0,39,0.00,,,0.00,Wunderground v.1.15,2013-05-14 15:27:00,
2013-05-14 11:32:00,54.3,33.9,30.08,NNW,346,2.0,3.0,46,0.00,,,0.00,Wunderground v.1.15,2013-05-14 15:32:00,
2013-05-14 11:38:00,54.8,30.9,30.08,East,98,3.0,4.0,40,0.00,,,0.00,Wunderground v.1.15,2013-05-14 15:38:00,
2013-05-14 11:43:00,54.6,31.3,30.08,WNW,290,4.0,8.0,41,0.00,,,0.00,Wunderground v.1.15,2013-05-14 15:43:00,
2013-05-14 11:48:00,54.3,30.5,30.08,NW,315,4.0,8.0,40,0.00,,,0.00,Wunderground v.1.15,2013-05-14 15:48:00,
2013-05-14 11:53:00,54.2,35.9,30.08,WNW,294,1.0,4.0,50,0.00,,,0.00,Wunderground v.1.15,2013-05-14 15:53:00,
2013-05-14 11:58:00,54.3,33.9,30.08,West,278,2.0,8.0,46,0.00,,,0.00,Wunderground v.1.15,2013-05-14 15:58:00,
2013-05-14 12:03:00,54.7,32.0,30.07,NNE,18,3.0,5.0,42,0.00,,,0.00,Wunderground v.1.15,2013-05-14 16:03:00,
2013-05-14 12:08:00,55.3,31.4,30.07,SSW,203,3.0,5.0,40,0.00,,,0.00,Wunderground v.1.15,2013-05-14 16:08:00,
2013-05-14 12:13:00,55.3,33.2,30.07,SSW,202,4.0,6.0,43,0.00,,,0.00,Wunderground v.1.15,2013-05-14 16:13:00,
2013-05-14 12:18:00,55.4,32.7,30.07,SW,229,4.0,6.0,42,0.00,,,0.00,Wunderground v.1.15,2013-05-14 16:18:00,
2013-05-14 12:24:00,55.1,31.2,30.08,WNW,296,4.0,7.0,40,0.00,,,0.00,Wunderground v.1.15,2013-05-14 16:24:00,
2013-05-14 12:29:00,55.0,31.7,30.07,NW,310,5.0,10.0,41,0.00,,,0.00,Wunderground v.1.15,2013-05-14 16:29:00,
2013-05-14 12:34:00,55.2,32.5,30.07,SSE,151,4.0,5.0,42,0.00,,,0.00,Wunderground v.1.15,2013-05-14 16:34:00,
2013-05-14 12:39:00,55.5,32.2,30.07,WSW,240,4.0,13.0,41,0.00,,,0.00,Wunderground v.1.15,2013-05-14 16:39:00,
2013-05-14 12:44:00,55.7,34.7,30.07,South,175,5.0,9.0,45,0.00,,,0.00,Wunderground v.1.15,2013-05-14 16:44:00,
2013-05-14 12:49:00,56.2,34.6,30.07,NW,309,5.0,12.0,44,0.00,,,0.00,Wunderground v.1.15,2013-05-14 16:49:00,
2013-05-14 12:54:00,56.4,34.7,30.07,NE,48,5.0,8.0,44,0.00,,,0.00,Wunderground v.1.15,2013-05-14 16:54:00,
2013-05-14 12:59:00,56.6,34.3,30.06,South,172,4.0,8.0,43,0.00,,,0.00,Wunderground v.1.15,2013-05-14 16:59:00,
2013-05-14 13:05:00,56.9,33.4,30.07,WSW,242,3.0,6.0,41,0.00,,,0.00,Wunderground v.1.15,2013-05-14 17:05:00,
2013-05-14 13:10:00,57.0,34.1,30.06,WSW,245,3.0,3.0,42,0.00,,,0.00,Wunderground v.1.15,2013-05-14 17:10:00,
2013-05-14 13:15:00,56.9,30.9,30.07,West,275,5.0,13.0,37,0.00,,,0.00,Wunderground v.1.15,2013-05-14 17:15:00,
2013-05-14 13:20:00,57.0,32.9,30.07,NNW,336,7.0,7.0,40,0.00,,,0.00,Wunderground v.1.15,2013-05-14 17:20:00,
2013-05-14 13:27:00,57.1,32.4,30.07,NW,313,4.0,7.0,39,0.00,,,0.00,Wunderground v.1.15,2013-05-14 17:27:00,
2013-05-14 13:32:00,57.1,32.4,30.07,West,268,5.0,7.0,39,0.00,,,0.00,Wunderground v.1.15,2013-05-14 17:32:00,
2013-05-14 13:37:00,57.0,34.1,30.07,WSW,242,6.0,7.0,42,0.00,,,0.00,Wunderground v.1.15,2013-05-14 17:37:00,
2013-05-14 13:42:00,57.2,34.9,30.06,West,274,6.0,9.0,43,0.00,,,0.00,Wunderground v.1.15,2013-05-14 17:42:00,
2013-05-14 13:48:00,57.6,31.5,30.07,NW,321,7.0,11.0,37,0.00,,,0.00,Wunderground v.1.15,2013-05-14 17:48:00,
2013-05-14 13:54:00,57.3,30.5,30.06,WNW,298,6.0,7.0,36,0.00,,,0.00,Wunderground v.1.15,2013-05-14 17:54:00,
2013-05-14 13:59:00,57.4,31.3,30.06,NW,307,4.0,8.0,37,0.00,,,0.00,Wunderground v.1.15,2013-05-14 17:59:00,
2013-05-14 14:05:00,57.8,33.0,30.06,WNW,284,4.0,11.0,39,0.00,,,0.00,Wunderground v.1.15,2013-05-14 18:05:00,
2013-05-14 14:10:00,58.0,31.8,30.06,West,271,6.0,12.0,37,0.00,,,0.00,Wunderground v.1.15,2013-05-14 18:10:00,
2013-05-14 14:15:00,57.5,30.7,30.05,West,261,8.0,13.0,36,0.00,,,0.00,Wunderground v.1.15,2013-05-14 18:15:00,
2013-05-14 14:20:00,57.4,31.3,30.06,WSW,246,7.0,7.0,37,0.00,,,0.00,Wunderground v.1.15,2013-05-14 18:20:00,
2013-05-14 14:25:00,57.2,31.8,30.05,West,263,6.0,16.0,38,0.00,,,0.00,Wunderground v.1.15,2013-05-14 18:25:00,
2013-05-14 14:30:00,57.6,30.8,30.05,SW,227,5.0,7.0,36,0.00,,,0.00,Wunderground v.1.15,2013-05-14 18:30:00,
2013-05-14 14:35:00,57.5,31.4,30.05,WNW,295,6.0,15.0,37,0.00,,,0.00,Wunderground v.1.15,2013-05-14 18:35:00,
2013-05-14 14:40:00,57.8,31.7,30.05,West,277,5.0,5.0,37,0.00,,,0.00,Wunderground v.1.15,2013-05-14 18:40:00,
2013-05-14 14:46:00,58.2,31.3,30.04,West,281,4.0,7.0,36,0.00,,,0.00,Wunderground v.1.15,2013-05-14 18:46:00,
2013-05-14 14:51:00,58.4,29.4,30.04,WNW,302,5.0,6.0,33,0.00,,,0.00,Wunderground v.1.15,2013-05-14 18:51:00,
2013-05-14 14:57:00,58.4,30.8,30.05,West,277,4.0,7.0,35,0.00,,,0.00,Wunderground v.1.15,2013-05-14 18:57:00,
2013-05-14 15:03:00,58.2,31.3,30.04,WSW,253,5.0,5.0,36,0.00,,,0.00,Wunderground v.1.15,2013-05-14 19:03:00,
2013-05-14 15:08:00,58.6,31.7,30.04,West,259,3.0,5.0,36,0.00,,,0.00,Wunderground v.1.15,2013-05-14 19:08:00,
2013-05-14 15:13:00,59.1,32.8,30.04,West,263,2.0,4.0,37,0.00,,,0.00,Wunderground v.1.15,2013-05-14 19:13:00,
2013-05-14 15:18:00,59.0,31.4,30.04,West,269,3.0,5.0,35,0.00,,,0.00,Wunderground v.1.15,2013-05-14 19:18:00,
2013-05-14 15:23:00,58.9,30.6,30.04,NW,322,4.0,5.0,34,0.00,,,0.00,Wunderground v.1.15,2013-05-14 19:23:00,
2013-05-14 15:29:00,58.7,31.8,30.04,NW,304,5.0,11.0,36,0.00,,,0.00,Wunderground v.1.15,2013-05-14 19:29:00,
2013-05-14 15:34:00,58.1,28.4,30.04,WNW,291,5.0,8.0,32,0.00,,,0.00,Wunderground v.1.15,2013-05-14 19:34:00,
2013-05-14 15:39:00,57.6,30.1,30.03,SSW,207,5.0,8.0,35,0.00,,,0.00,Wunderground v.1.15,2013-05-14 19:39:00,
2013-05-14 15:44:00,57.5,29.3,30.03,West,277,6.0,9.0,34,0.00,,,0.00,Wunderground v.1.15,2013-05-14 19:44:00,
2013-05-14 15:49:00,57.4,30.6,30.03,WNW,288,5.0,9.0,36,0.00,,,0.00,Wunderground v.1.15,2013-05-14 19:49:00,
2013-05-14 15:54:00,57.4,29.2,30.03,NW,306,4.0,9.0,34,0.00,,,0.00,Wunderground v.1.15,2013-05-14 19:54:00,
2013-05-14 15:59:00,57.2,28.3,30.03,WNW,291,6.0,11.0,33,0.00,,,0.00,Wunderground v.1.15,2013-05-14 19:59:00,
2013-05-14 16:05:00,57.3,31.2,30.03,West,273,5.0,9.0,37,0.00,,,0.00,Wunderground v.1.15,2013-05-14 20:05:00,
2013-05-14 16:10:00,57.5,30.0,30.03,NW,313,4.0,4.0,35,0.00,,,0.00,Wunderground v.1.15,2013-05-14 20:10:00,
2013-05-14 16:15:00,57.9,27.4,30.03,WNW,292,4.0,9.0,31,0.00,,,0.00,Wunderground v.1.15,2013-05-14 20:15:00,
2013-05-14 16:20:00,57.9,31.1,30.02,West,279,3.0,4.0,36,0.00,,,0.00,Wunderground v.1.15,2013-05-14 20:20:00,
2013-05-14 16:26:00,57.9,28.9,30.02,WSW,238,3.0,8.0,33,0.00,,,0.00,Wunderground v.1.15,2013-05-14 20:26:00,
2013-05-14 16:31:00,57.9,27.4,30.02,NW,304,3.0,9.0,31,0.00,,,0.00,Wunderground v.1.15,2013-05-14 20:31:00,
2013-05-14 16:36:00,57.9,28.9,30.02,West,268,4.0,13.0,33,0.00,,,0.00,Wunderground v.1.15,2013-05-14 20:36:00,
2013-05-14 16:41:00,58.0,26.7,30.02,West,267,5.0,5.0,30,0.00,,,0.00,Wunderground v.1.15,2013-05-14 20:41:00,
2013-05-14 16:47:00,57.9,28.9,30.02,NNW,329,3.0,5.0,33,0.00,,,0.00,Wunderground v.1.15,2013-05-14 20:47:00,
2013-05-14 16:52:00,57.9,30.4,30.01,West,269,3.0,3.0,35,0.00,,,0.00,Wunderground v.1.15,2013-05-14 20:52:00,
2013-05-14 16:57:00,58.0,28.3,30.01,West,269,2.0,4.0,32,0.00,,,0.00,Wunderground v.1.15,2013-05-14 20:57:00,
2013-05-14 17:02:00,58.2,26.9,30.01,North,5,3.0,5.0,30,0.00,,,0.00,Wunderground v.1.15,2013-05-14 21:02:00,
2013-05-14 17:07:00,58.2,26.9,30.01,NW,324,5.0,9.0,30,0.00,,,0.00,Wunderground v.1.15,2013-05-14 21:07:00,
2013-05-14 17:13:00,58.2,28.5,30.01,West,277,4.0,5.0,32,0.00,,,0.00,Wunderground v.1.15,2013-05-14 21:13:00,
2013-05-14 17:18:00,58.2,27.7,30.01,West,281,4.0,5.0,31,0.00,,,0.00,Wunderground v.1.15,2013-05-14 21:18:00,
2013-05-14 17:23:00,58.0,26.7,30.01,West,280,2.0,3.0,30,0.00,,,0.00,Wunderground v.1.15,2013-05-14 21:23:00,
2013-05-14 17:28:00,58.2,27.7,30.01,WNW,290,2.0,10.0,31,0.00,,,0.00,Wunderground v.1.15,2013-05-14 21:28:00,
2013-05-14 17:33:00,58.3,27.0,30.01,WNW,294,4.0,9.0,30,0.00,,,0.00,Wunderground v.1.15,2013-05-14 21:33:00,
2013-05-14 17:39:00,58.6,26.4,30.01,NW,318,4.0,9.0,29,0.00,,,0.00,Wunderground v.1.15,2013-05-14 21:39:00,
2013-05-14 17:44:00,58.6,26.4,30.01,WNW,302,2.0,3.0,29,0.00,,,0.00,Wunderground v.1.15,2013-05-14 21:44:00,
2013-05-14 17:49:00,58.6,28.0,30.01,WNW,287,2.0,8.0,31,0.00,,,0.00,Wunderground v.1.15,2013-05-14 21:49:00,
2013-05-14 17:55:00,58.4,26.2,30.01,WNW,298,4.0,5.0,29,0.00,,,0.00,Wunderground v.1.15,2013-05-14 21:55:00,
2013-05-14 18:00:00,58.3,26.1,30.00,SW,219,4.0,4.0,29,0.00,,,0.00,Wunderground v.1.15,2013-05-14 22:00:00,
2013-05-14 18:06:00,58.1,27.6,30.00,West,281,5.0,5.0,31,0.00,,,0.00,Wunderground v.1.15,2013-05-14 22:06:00,
2013-05-14 18:11:00,58.0,26.7,30.00,West,259,4.0,4.0,30,0.00,,,0.00,Wunderground v.1.15,2013-05-14 22:11:00,
2013-05-14 18:17:00,57.9,26.6,30.00,WNW,292,4.0,8.0,30,0.00,,,0.00,Wunderground v.1.15,2013-05-14 22:17:00,
2013-05-14 18:22:00,57.7,26.4,30.00,West,279,4.0,4.0,30,0.00,,,0.00,Wunderground v.1.15,2013-05-14 22:22:00,
2013-05-14 18:27:00,57.6,28.7,30.00,West,276,3.0,6.0,33,0.00,,,0.00,Wunderground v.1.15,2013-05-14 22:27:00,
2013-05-14 18:33:00,57.4,27.0,30.01,WNW,292,4.0,8.0,31,0.00,,,0.00,Wunderground v.1.15,2013-05-14 22:33:00,
2013-05-14 18:38:00,57.3,26.1,30.01,WNW,284,4.0,8.0,30,0.00,,,0.00,Wunderground v.1.15,2013-05-14 22:38:00,
2013-05-14 18:43:00,57.3,26.1,30.01,WSW,258,3.0,7.0,30,0.00,,,0.00,Wunderground v.1.15,2013-05-14 22:43:00,
2013-05-14 18:49:00,57.2,29.8,30.01,North,349,3.0,7.0,35,0.00,,,0.00,Wunderground v.1.15,2013-05-14 22:49:00,
2013-05-14 18:55:00,57.0,26.6,30.01,West,279,2.0,5.0,31,0.00,,,0.00,Wunderground v.1.15,2013-05-14 22:55:00,
2013-05-14 19:00:00,56.8,24.8,30.01,WNW,290,3.0,3.0,29,0.00,,,0.00,Wunderground v.1.15,2013-05-14 23:00:00,
2013-05-14 19:06:00,56.6,28.5,30.01,West,279,3.0,5.0,34,0.00,,,0.00,Wunderground v.1.15,2013-05-14 23:06:00,
2013-05-14 19:11:00,56.4,26.9,30.01,West,279,1.0,3.0,32,0.00,,,0.00,Wunderground v.1.15,2013-05-14 23:11:00,
2013-05-14 19:17:00,56.1,28.1,30.01,West,259,1.0,4.0,34,0.00,,,0.00,Wunderground v.1.15,2013-05-14 23:17:00,
2013-05-14 19:22:00,55.9,25.7,30.01,West,277,2.0,2.0,31,0.00,,,0.00,Wunderground v.1.15,2013-05-14 23:22:00,
2013-05-14 19:28:00,55.6,26.9,30.01,WNW,292,2.0,3.0,33,0.00,,,0.00,Wunderground v.1.15,2013-05-14 23:28:00,
2013-05-14 19:33:00,55.4,26.7,30.01,WNW,284,2.0,7.0,33,0.00,,,0.00,Wunderground v.1.15,2013-05-14 23:33:00,
2013-05-14 19:38:00,55.2,25.8,30.01,WNW,293,2.0,7.0,32,0.00,,,0.00,Wunderground v.1.15,2013-05-14 23:38:00,
2013-05-14 19:43:00,54.9,27.7,30.01,WNW,293,1.0,2.0,35,0.00,,,0.00,Wunderground v.1.15,2013-05-14 23:43:00,
2013-05-14 19:48:00,54.7,33.8,30.01,WNW,293,0.0,2.0,45,0.00,,,0.00,Wunderground v.1.15,2013-05-14 23:48:00,
2013-05-14 19:53:00,54.3,29.8,30.01,WNW,293,0.0,0.0,39,0.00,,,0.00,Wunderground v.1.15,2013-05-14 23:53:00,
2013-05-14 19:58:00,53.9,29.5,30.02,WNW,293,0.0,0.0,39,0.00,,,0.00,Wunderground v.1.15,2013-05-14 23:58:00,
2013-05-14 20:04:00,53.4,30.9,30.01,WNW,293,0.0,0.0,42,0.00,,,0.00,Wunderground v.1.15,2013-05-15 00:04:00,
2013-05-14 20:09:00,52.8,31.5,30.01,WNW,293,0.0,0.0,44,0.00,,,0.00,Wunderground v.1.15,2013-05-15 00:09:00,
2013-05-14 20:14:00,52.3,32.1,30.01,WNW,293,0.0,0.0,46,0.00,,,0.00,Wunderground v.1.15,2013-05-15 00:14:00,
2013-05-14 20:19:00,51.9,33.3,30.02,WNW,293,0.0,0.0,49,0.00,,,0.00,Wunderground v.1.15,2013-05-15 00:19:00,
2013-05-14 20:25:00,51.2,32.7,30.02,WNW,293,0.0,0.0,49,0.00,,,0.00,Wunderground v.1.15,2013-05-15 00:25:00,
2013-05-14 20:30:00,50.6,31.6,30.02,WNW,293,0.0,0.0,48,0.00,,,0.00,Wunderground v.1.15,2013-05-15 00:30:00,
2013-05-14 20:35:00,50.0,31.6,30.02,WNW,293,0.0,0.0,49,0.00,,,0.00,Wunderground v.1.15,2013-05-15 00:35:00,
2013-05-14 20:40:00,49.5,30.6,30.02,WNW,293,0.0,0.0,48,0.00,,,0.00,Wunderground v.1.15,2013-05-15 00:40:00,
2013-05-14 20:46:00,48.9,31.1,30.02,WNW,293,0.0,0.0,50,0.00,,,0.00,Wunderground v.1.15,2013-05-15 00:46:00,
2013-05-14 20:51:00,48.4,31.6,30.02,WNW,293,0.0,0.0,52,0.00,,,0.00,Wunderground v.1.15,2013-05-15 00:51:00,
2013-05-14 20:56:00,47.9,31.6,30.02,WNW,293,0.0,0.0,53,0.00,,,0.00,Wunderground v.1.15,2013-05-15 00:56:00,
2013-05-14 21:02:00,47.3,31.5,30.02,WNW,293,0.0,0.0,54,0.00,,,0.00,Wunderground v.1.15,2013-05-15 01:02:00,
2013-05-14 21:08:00,46.8,32.8,30.03,WNW,293,0.0,0.0,58,0.00,,,0.00,Wunderground v.1.15,2013-05-15 01:08:00,
2013-05-14 21:14:00,46.3,33.2,30.03,WNW,293,0.0,0.0,60,0.00,,,0.00,Wunderground v.1.15,2013-05-15 01:14:00,
2013-05-14 21:19:00,45.9,33.2,30.04,WNW,293,0.0,0.0,61,0.00,,,0.00,Wunderground v.1.15,2013-05-15 01:19:00,
2013-05-14 21:25:00,45.4,33.5,30.04,WNW,293,0.0,0.0,63,0.00,,,0.00,Wunderground v.1.15,2013-05-15 01:25:00,
2013-05-14 21:30:00,45.1,33.6,30.04,WNW,293,0.0,0.0,64,0.00,,,0.00,Wunderground v.1.15,2013-05-15 01:30:00,
2013-05-14 21:35:00,44.7,33.3,30.04,WNW,293,0.0,0.0,64,0.00,,,0.00,Wunderground v.1.15,2013-05-15 01:35:00,
2013-05-14 21:40:00,44.4,33.4,30.04,WNW,293,0.0,0.0,65,0.00,,,0.00,Wunderground v.1.15,2013-05-15 01:40:00,
2013-05-14 21:45:00,44.1,33.8,30.04,WNW,293,0.0,0.0,67,0.00,,,0.00,Wunderground v.1.15,2013-05-15 01:45:00,
2013-05-14 21:51:00,43.8,33.9,30.04,WNW,293,0.0,0.0,68,0.00,,,0.00,Wunderground v.1.15,2013-05-15 01:51:00,
2013-05-14 21:56:00,43.4,34.3,30.04,WNW,293,0.0,0.0,70,0.00,,,0.00,Wunderground v.1.15,2013-05-15 01:56:00,
2013-05-14 22:01:00,43.1,33.6,30.05,WNW,293,0.0,0.0,69,0.00,,,0.00,Wunderground v.1.15,2013-05-15 02:01:00,
2013-05-14 22:06:00,42.8,34.0,30.05,WNW,293,0.0,0.0,71,0.00,,,0.00,Wunderground v.1.15,2013-05-15 02:06:00,
2013-05-14 22:12:00,42.4,34.0,30.05,WNW,293,0.0,0.0,72,0.00,,,0.00,Wunderground v.1.15,2013-05-15 02:12:00,
2013-05-14 22:17:00,41.3,34.0,30.05,WNW,285,0.0,1.0,75,0.00,,,0.00,Wunderground v.1.15,2013-05-15 02:17:00,
2013-05-14 22:22:00,41.1,34.1,30.05,WNW,285,0.0,0.0,76,0.00,,,0.00,Wunderground v.1.15,2013-05-15 02:22:00,
2013-05-14 22:27:00,40.9,34.2,30.05,WNW,285,0.0,0.0,77,0.00,,,0.00,Wunderground v.1.15,2013-05-15 02:27:00,
2013-05-14 22:34:00,40.8,33.8,30.05,WNW,285,0.0,0.0,76,0.00,,,0.00,Wunderground v.1.15,2013-05-15 02:34:00,
2013-05-14 22:39:00,40.6,34.3,30.05,WNW,285,0.0,0.0,78,0.00,,,0.00,Wunderground v.1.15,2013-05-15 02:39:00,
2013-05-14 22:44:00,40.4,34.1,30.05,WNW,285,0.0,0.0,78,0.00,,,0.00,Wunderground v.1.15,2013-05-15 02:44:00,
2013-05-14 22:49:00,40.2,34.2,30.05,WNW,285,0.0,0.0,79,0.00,,,0.00,Wunderground v.1.15,2013-05-15 02:49:00,
2013-05-14 22:54:00,39.9,34.2,30.05,WNW,285,0.0,0.0,80,0.00,,,0.00,Wunderground v.1.15,2013-05-15 02:54:00,
2013-05-14 22:59:00,39.7,34.3,30.05,WNW,285,0.0,0.0,81,0.00,,,0.00,Wunderground v.1.15,2013-05-15 02:59:00,
2013-05-14 23:05:00,39.4,34.4,30.05,WNW,285,0.0,0.0,82,0.00,,,0.00,Wunderground v.1.15,2013-05-15 03:05:00,
2013-05-14 23:10:00,39.2,34.2,30.06,WNW,285,0.0,0.0,82,0.00,,,0.00,Wunderground v.1.15,2013-05-15 03:10:00,
2013-05-14 23:15:00,39.0,34.3,30.06,WNW,285,0.0,0.0,83,0.00,,,0.00,Wunderground v.1.15,2013-05-15 03:15:00,
2013-05-14 23:20:00,38.8,34.1,30.06,WNW,285,0.0,0.0,83,0.00,,,0.00,Wunderground v.1.15,2013-05-15 03:20:00,
2013-05-14 23:26:00,38.6,34.2,30.06,WNW,285,0.0,0.0,84,0.00,,,0.00,Wunderground v.1.15,2013-05-15 03:26:00,
2013-05-14 23:31:00,38.5,34.1,30.06,WNW,285,0.0,0.0,84,0.00,,,0.00,Wunderground v.1.15,2013-05-15 03:31:00,
2013-05-14 23:36:00,38.4,34.0,30.06,WNW,285,0.0,0.0,84,0.00,,,0.00,Wunderground v.1.15,2013-05-15 03:36:00,
2013-05-14 23:42:00,38.2,34.1,30.06,WNW,285,0.0,0.0,85,0.00,,,0.00,Wunderground v.1.15,2013-05-15 03:42:00,
2013-05-14 23:49:00,38.0,34.2,30.06,WNW,285,0.0,0.0,86,0.00,,,0.00,Wunderground v.1.15,2013-05-15 03:49:00,
2013-05-14 23:54:00,37.9,34.1,30.06,WNW,285,0.0,0.0,86,0.00,,,0.00,Wunderground v.1.15,2013-05-15 03:54:00,
2013-05-14 23:59:00,37.8,34.0,30.06,WNW,285,0.0,0.0,86,0.00,,,0.00,Wunderground v.1.15,2013-05-15 03:59:00,